Tracking 30995 objects as of 5-Jul-2025
HD Live streaming from Space Station
objects crossing your sky now

FENGYUN 1C DEB

Track FENGYUN 1C DEB now!
10-day predictions


NORAD ID: 31064
Int'l Code: 1999-025BFJ
Perigee: 651.1 km
Apogee: 1,001.7 km
Inclination: 98.6 °
Period: 101.3 minutes
Semi major axis: 7197 km
RCS: 0.0138 m2 (small)
Launch date: May 10, 1999
Source: People's Republic of China (PRC)
Launch site: Taiyaun Space Center, China (TSC)

Note: This is SATELLITE DEBRIS
Your satellite tracking list
CZ-4C DEB
Track 1 satellite(s)




NASA's NSSDC Master Catalog

Two Line Element Set (TLE):
1 31064U 99025BFJ 25185.48948427  .00000599  00000-0  21641-3 0  9996
2 31064  98.5550 172.6417 0243536 109.7974  18.6818 14.21802718949633
Source of the keplerian elements: AFSPC